Location: �clusier
(49.9361°N, 2.7869°E)
Time: 08:01:44
(UTC+00:00)

Resurs 01 Rocket - Pass Details

Date: 16 June 2021
Orbit: 635 x 643 km, 97.9° (Epoch: 31 July)

Event Time Altitude Azimuth Distance (km) Brightness Sun altitude
Rises 21:04:06 0° 192° (SSW) 2,923 4.6 -8.0°
Reaches altitude 10° 21:06:31 10° 203° (SSW) 2,019 3.9 -8.3°
Maximum altitude 21:10:23 30° 265° (W) 1,144 3.3 -8.6°
Drops below altitude 10° 21:14:18 10° 327° (NNW) 2,033 5.9 -9.0°
Sets 21:16:45 0° 338° (NNW) 2,948 6.9 -9.2°
